Kezdőlap
METAR-TAF:

METAR-TAF

Repülőterek :

Stanton, Minnesota, Amerikai Egyesült Államok

földrajzi szélesség: 44-28-32N, földrajzi hosszúság: 093-00-59W, magasság: 280 m

Jelenlegi meteorológiai megfigyelések

A jelentés 11 perccel ezelõtt készült, 10:35 UTC
Szélcsend
Hőmérséklet 8°C
Páratartalom 87%
Légköri nyomás 1016 hPa
Látótávolság: 16.1 km
Derült ég

METAR: KSYN 171035Z AUTO 00000KT 10SM CLR 08/06 A3001 RMK AO2 T00780058

Idő: 05:46 (10:46 UTC)


TAF: hiányzik

Meteorológiai megfigyelések és előrejelzések több, mint 4000 repülőtéren (METAR és TAF jelentéseket).

A térképen piros és sárga pontok jelzik az elérhető meteorológiai állomásokat.

Mozgassa az egeret a pont fölött, hogy megjelenjen az állomás neve.

Azután kattintson az időjárási megfigyelések és előrejelzések megtekintéséhez.

A térkép megváltoztatása: kattintson a fekete keresztel jelölt zöld gombra ráközelítéshez, a vonallal jelölt zöld gombra távolításhoz, vagy a zöld nyilakra a szomszédos térképek eléréséhez.


METAR-TAF: